Location: ????????
(54.6123°N, 39.2099°E)
Time: 03:56:57
(UTC+00:00)

BlueWalker 3 - Pass Details

Date: 19 May 2025
Orbit: 460 x 472 km, 53.2° (Epoch: 19 June)

Event Time Altitude Azimuth Distance (km) Brightness Sun altitude
Rises 19:31:11 0° 281° (W) 2,497 6.0 -11.9°
Reaches altitude 10° 19:33:51 10° 260° (W) 1,620 4.7 -12.1°
Maximum altitude 19:36:16 17° 219° (SW) 1,251 3.7 -12.2°
Enters shadow 19:37:34 15° 193° (SSW) 1,365 3.7 -12.3°
